Location: Fours
(44.3167°N, 6.7000°E)
Time: 12:02:32
(UTC+00:00)

NOAA 12 - Pass Details

Date: 30 November 2020
Orbit: 795 x 815 km, 98.5° (Epoch: 25 January)

Event Time Altitude Azimuth Distance (km) Brightness Sun altitude
Rises 16:36:01 0° 154° (SSE) 3,328 7.3 -7.3°
Reaches altitude 10° 16:38:22 10° 151° (SSE) 2,400 6.5 -7.7°
Maximum altitude 16:43:36 62° 72° (ENE) 913 4.1 -8.5°
Drops below altitude 10° 16:48:51 10° 353° (N) 2,409 6.4 -9.4°
Sets 16:51:13 0° 350° (N) 3,342 7.2 -9.8°
